MAU320 FIMP-FSIA

Flight info

Callsign MAU320
Flight time N/A
Altitude 37000
Route DURDA1C DURDA UT401 ALRAN UM313 RERUS DCT IMPOX IMPOX1E
Aircraft A319/M-SDE3FGHIRWY/LB1

Departure

Time 2026-04-27 12:40
Airport Sir Seewoosagur Ramgoolam International Airport (FIMP)

Arrival

Time N/A
Airport Seychelles International Airport (FSIA)
Time Latitude Longitude Altitude Speed Heading
2026-04-27 12:06 -20.42947 57.67561 199 ft 0 kts 150°
2026-04-27 12:31 -20.42941 57.67557 186 ft 4 kts 150°
2026-04-27 12:31 -20.42917 57.67542 200 ft 4 kts 150°
2026-04-27 12:31 -20.42898 57.67531 194 ft 4 kts 139°
2026-04-27 12:32 -20.42888 57.67512 198 ft 4 kts 69°
2026-04-27 12:32 -20.42900 57.67489 199 ft 1 kts 63°
2026-04-27 12:32 -20.42900 57.67488 199 ft 0 kts 63°
2026-04-27 12:34 -20.42900 57.67489 199 ft 0 kts 63°
2026-04-27 12:34 -20.42899 57.67491 200 ft 1 kts 63°
2026-04-27 12:34 -20.42892 57.67505 195 ft 3 kts 63°
2026-04-27 12:34 -20.42880 57.67530 201 ft 4 kts 63°
2026-04-27 12:35 -20.42868 57.67557 194 ft 4 kts 63°
2026-04-27 12:35 -20.42848 57.67580 189 ft 4 kts 20°
2026-04-27 12:35 -20.42824 57.67568 186 ft 4 kts 321°
2026-04-27 12:35 -20.42803 57.67550 186 ft 4 kts 322°
2026-04-27 12:36 -20.42785 57.67535 194 ft 3 kts 322°
2026-04-27 12:36 -20.42770 57.67523 189 ft 2 kts 322°
2026-04-27 12:36 -20.42762 57.67516 194 ft 1 kts 322°
2026-04-27 12:36 -20.42760 57.67514 193 ft 0 kts 322°
2026-04-27 12:37 -20.42758 57.67512 192 ft 1 kts 322°
2026-04-27 12:38 -20.42745 57.67501 191 ft 4 kts 322°
2026-04-27 12:38 -20.42718 57.67484 198 ft 5 kts 339°
2026-04-27 12:38 -20.42679 57.67471 205 ft 7 kts 343°
2026-04-27 12:38 -20.42629 57.67463 192 ft 6 kts
2026-04-27 12:39 -20.42598 57.67477 197 ft 4 kts 41°
2026-04-27 12:39 -20.42604 57.67489 192 ft 2 kts 120°
2026-04-27 12:39 -20.42615 57.67511 202 ft 7 kts 118°
2026-04-27 12:39 -20.42727 57.67731 195 ft 71 kts 117°
2026-04-27 12:40 -20.43039 57.68390 180 ft 127 kts 117°
2026-04-27 12:40 -20.43514 57.69369 157 ft 172 kts 115°
2026-04-27 12:40 -20.44060 57.70464 844 ft 161 kts 113°
2026-04-27 12:40 -20.44575 57.71520 1486 ft 160 kts 112°
2026-04-27 12:41 -20.45087 57.72585 2060 ft 167 kts 113°
2026-04-27 12:41 -20.45645 57.73756 2360 ft 188 kts 113°
2026-04-27 12:41 -20.46158 57.75096 2618 ft 205 kts 96°
2026-04-27 12:41 -20.45803 57.76616 2816 ft 229 kts 54°
2026-04-27 12:42 -20.44538 57.77783 3241 ft 252 kts 34°
2026-04-27 12:42 -20.42974 57.78687 4015 ft 258 kts 28°
2026-04-27 12:42 -20.41367 57.79511 4809 ft 262 kts 27°
2026-04-27 12:42 -20.39706 57.80374 5544 ft 268 kts 28°
2026-04-27 12:43 -20.38043 57.81287 6343 ft 271 kts 29°
2026-04-27 12:43 -20.36373 57.82248 7076 ft 274 kts 31°
2026-04-27 12:43 -20.34693 57.83250 7803 ft 278 kts 31°
2026-04-27 12:43 -20.33002 57.84279 8254 ft 282 kts 31°
2026-04-27 12:44 -20.31301 57.85326 8379 ft 283 kts 31°
2026-04-27 12:44 -20.29597 57.86374 8427 ft 283 kts 31°
2026-04-27 12:44 -20.27848 57.87365 9091 ft 286 kts 28°
2026-04-27 12:44 -20.26087 57.88314 9827 ft 289 kts 28°
2026-04-27 12:45 -20.24245 57.89242 10274 ft 303 kts 21°
2026-04-27 12:45 -20.22102 57.89697 10426 ft 327 kts
2026-04-27 12:45 -20.19804 57.89379 10825 ft 341 kts 344°
2026-04-27 12:45 -20.17653 57.88282 11395 ft 347 kts 325°
2026-04-27 12:46 -20.15900 57.86498 12008 ft 352 kts 310°
2026-04-27 12:46 -20.14325 57.84498 12667 ft 353 kts 310°
2026-04-27 12:46 -20.12748 57.82473 13284 ft 357 kts 309°
2026-04-27 12:46 -20.11168 57.80433 13869 ft 359 kts 309°
2026-04-27 12:47 -20.09594 57.78400 14373 ft 362 kts 309°
2026-04-27 12:47 -20.07982 57.76325 14871 ft 366 kts 309°
2026-04-27 12:47 -20.06354 57.74234 15378 ft 369 kts 309°
2026-04-27 12:47 -20.04707 57.72127 15887 ft 371 kts 309°
2026-04-27 12:48 -20.03048 57.70008 16376 ft 375 kts 309°
2026-04-27 12:48 -20.01373 57.67870 16881 ft 377 kts 309°
2026-04-27 12:48 -19.99687 57.65718 17370 ft 381 kts 309°
2026-04-27 12:48 -19.97987 57.63544 17845 ft 384 kts 309°
2026-04-27 12:49 -19.96297 57.61381 18291 ft 387 kts 309°
2026-04-27 12:49 -19.94569 57.59174 18722 ft 389 kts 309°
2026-04-27 12:49 -19.92835 57.56961 19183 ft 390 kts 309°
2026-04-27 12:49 -19.91098 57.54741 19652 ft 392 kts 309°
2026-04-27 12:50 -19.89349 57.52512 20116 ft 393 kts 309°
2026-04-27 12:50 -19.87411 57.50462 20576 ft 396 kts 320°
2026-04-27 12:50 -19.85116 57.48829 21019 ft 399 kts 330°
2026-04-27 12:50 -19.82617 57.47538 21480 ft 401 kts 333°
2026-04-27 12:51 -19.80099 57.46245 21938 ft 402 kts 333°
2026-04-27 12:51 -19.77577 57.44939 22365 ft 405 kts 333°
2026-04-27 12:51 -19.75073 57.43641 22788 ft 407 kts 333°
2026-04-27 12:51 -19.72523 57.42320 23199 ft 409 kts 333°
2026-04-27 12:52 -19.69958 57.40994 23588 ft 411 kts 333°
2026-04-27 12:52 -19.67379 57.39664 23941 ft 413 kts 333°
2026-04-27 12:52 -19.64792 57.38329 24300 ft 414 kts 332°
2026-04-27 12:52 -19.62198 57.36989 24674 ft 415 kts 332°
2026-04-27 12:53 -19.56996 57.34309 25404 ft 416 kts 332°
2026-04-27 12:53 -19.54422 57.32988 25760 ft 417 kts 332°
2026-04-27 12:53 -19.51810 57.31647 26117 ft 418 kts 332°
2026-04-27 12:54 -19.49184 57.30297 26471 ft 419 kts 332°
2026-04-27 12:54 -19.46559 57.28948 26817 ft 420 kts 332°
2026-04-27 12:54 -19.43924 57.27593 27153 ft 421 kts 332°
2026-04-27 12:54 -19.41284 57.26234 27492 ft 423 kts 332°
2026-04-27 12:55 -19.38635 57.24872 27834 ft 424 kts 332°
2026-04-27 12:55 -19.35976 57.23509 28175 ft 425 kts 332°
2026-04-27 12:55 -19.33316 57.22145 28509 ft 426 kts 332°
2026-04-27 12:55 -19.30678 57.20794 28838 ft 427 kts 332°
2026-04-27 12:56 -19.28000 57.19425 29165 ft 428 kts 332°
2026-04-27 12:56 -19.25312 57.18049 29484 ft 430 kts 331°
2026-04-27 12:56 -19.22619 57.16669 29801 ft 431 kts 331°
2026-04-27 12:56 -19.19916 57.15286 30082 ft 432 kts 331°
2026-04-27 12:57 -19.17205 57.13897 30338 ft 433 kts 331°
2026-04-27 12:57 -19.14484 57.12504 30589 ft 435 kts 331°
2026-04-27 12:57 -19.11757 57.11108 30821 ft 436 kts 331°
2026-04-27 12:57 -19.09026 57.09709 31072 ft 437 kts 331°
2026-04-27 12:58 -19.06325 57.08326 31395 ft 436 kts 331°
2026-04-27 12:58 -19.03597 57.06934 31749 ft 435 kts 331°
2026-04-27 12:58 -19.00879 57.05549 32098 ft 433 kts 331°
2026-04-27 12:58 -18.98167 57.04164 32443 ft 432 kts 330°
2026-04-27 12:59 -18.95465 57.02787 32784 ft 431 kts 330°
2026-04-27 12:59 -18.92767 57.01410 33124 ft 430 kts 330°
2026-04-27 12:59 -18.90076 57.00037 33465 ft 429 kts 330°
2026-04-27 12:59 -18.87389 56.98670 33807 ft 428 kts 330°
2026-04-27 13:00 -18.84716 56.97309 34112 ft 427 kts 330°
2026-04-27 13:00 -18.82080 56.95967 34387 ft 425 kts 330°
2026-04-27 13:00 -18.79422 56.94613 34661 ft 424 kts 329°
2026-04-27 13:00 -18.76765 56.93259 34836 ft 424 kts 329°
2026-04-27 13:01 -18.71510 56.90584 34876 ft 416 kts 329°
2026-04-27 13:01 -18.66312 56.87939 34876 ft 414 kts 329°
2026-04-27 13:02 -18.61120 56.85301 34876 ft 414 kts 329°
2026-04-27 13:02 -18.55962 56.82683 34876 ft 414 kts 329°
2026-04-27 13:03 -18.50771 56.80048 34877 ft 414 kts 329°
2026-04-27 13:03 -18.45586 56.77416 34865 ft 414 kts 329°
2026-04-27 13:04 -18.40397 56.74791 34866 ft 414 kts 329°
2026-04-27 13:04 -18.35215 56.72160 34865 ft 413 kts 329°
2026-04-27 13:05 -18.30067 56.69550 34863 ft 413 kts 329°
2026-04-27 13:05 -18.24879 56.66930 34863 ft 413 kts 329°
2026-04-27 13:06 -18.19691 56.64309 34863 ft 413 kts 329°
2026-04-27 13:06 -18.14507 56.61692 34862 ft 414 kts 329°
2026-04-27 13:07 -18.09231 56.59247 34860 ft 419 kts 338°
2026-04-27 13:07 -18.03430 56.58363 34860 ft 428 kts 349°
2026-04-27 13:08 -17.97496 56.57811 34859 ft 428 kts 349°
2026-04-27 13:08 -17.91568 56.57254 34862 ft 428 kts 349°
2026-04-27 13:09 -17.85632 56.56694 34847 ft 428 kts 348°
2026-04-27 13:09 -17.79742 56.56129 34852 ft 428 kts 348°
2026-04-27 13:10 -17.73805 56.55573 34855 ft 428 kts 348°
2026-04-27 13:10 -17.67868 56.55009 34858 ft 428 kts 348°
2026-04-27 13:11 -17.61929 56.54442 34860 ft 429 kts 348°
2026-04-27 13:11 -17.56024 56.53895 34856 ft 429 kts 348°
2026-04-27 13:12 -17.50077 56.53337 34859 ft 429 kts 348°
2026-04-27 13:12 -17.44127 56.52777 34862 ft 429 kts 348°
2026-04-27 13:13 -17.38176 56.52218 34863 ft 429 kts 348°
2026-04-27 13:13 -17.32231 56.51663 34864 ft 429 kts 348°
2026-04-27 13:14 -17.26322 56.51109 34852 ft 429 kts 348°
2026-04-27 13:14 -17.20378 56.50545 34854 ft 429 kts 348°
2026-04-27 13:15 -17.14432 56.49984 34855 ft 429 kts 348°
2026-04-27 13:15 -17.08478 56.49428 34858 ft 430 kts 348°
2026-04-27 13:16 -17.02560 56.48878 34865 ft 430 kts 348°
2026-04-27 13:16 -16.96594 56.48329 34858 ft 430 kts 348°
2026-04-27 13:17 -16.90632 56.47767 34862 ft 430 kts 348°
2026-04-27 13:17 -16.84676 56.47204 34865 ft 430 kts 348°
2026-04-27 13:18 -16.78717 56.46646 34868 ft 430 kts 348°
2026-04-27 13:18 -16.72804 56.46093 34867 ft 429 kts 348°
2026-04-27 13:19 -16.66854 56.45532 34858 ft 429 kts 348°
2026-04-27 13:19 -16.60899 56.44980 34861 ft 430 kts 348°
2026-04-27 13:20 -16.54947 56.44429 34863 ft 429 kts 348°
2026-04-27 13:20 -16.49033 56.43875 34864 ft 429 kts 348°
2026-04-27 13:21 -16.43083 56.43319 34866 ft 429 kts 348°
2026-04-27 13:21 -16.37129 56.42771 34854 ft 430 kts 348°
2026-04-27 13:22 -16.31174 56.42220 34857 ft 430 kts 348°
2026-04-27 13:22 -16.25255 56.41664 34860 ft 430 kts 348°
2026-04-27 13:23 -16.19301 56.41110 34863 ft 430 kts 348°
2026-04-27 13:23 -16.13339 56.40563 34865 ft 430 kts 348°
2026-04-27 13:24 -16.07380 56.40011 34860 ft 430 kts 348°
2026-04-27 13:24 -16.01418 56.39457 34864 ft 430 kts 348°
2026-04-27 13:25 -15.95493 56.38905 34870 ft 430 kts 348°
2026-04-27 13:25 -15.89526 56.38347 34875 ft 431 kts 348°
2026-04-27 13:26 -15.83559 56.37801 34873 ft 431 kts 348°
2026-04-27 13:26 -15.77585 56.37259 34863 ft 431 kts 349°
2026-04-27 13:27 -15.71652 56.36711 34857 ft 431 kts 348°
2026-04-27 13:27 -15.65672 56.36146 34860 ft 431 kts 348°
2026-04-27 13:28 -15.59694 56.35592 34863 ft 432 kts 349°
2026-04-27 13:28 -15.53706 56.35044 34866 ft 432 kts 349°
2026-04-27 13:29 -15.47714 56.34497 34854 ft 432 kts 349°
2026-04-27 13:29 -15.41761 56.33949 34856 ft 433 kts 349°
2026-04-27 13:30 -15.35762 56.33394 34868 ft 433 kts 349°
2026-04-27 13:30 -15.29753 56.32845 34875 ft 433 kts 349°
2026-04-27 13:31 -15.23748 56.32293 34872 ft 433 kts 349°
2026-04-27 13:31 -15.17745 56.31734 34878 ft 433 kts 349°